This demonstration page uses our WeatherBlox Daily Observations layout. Learn more.

Left ArrowRight Arrow

Hourly Observations for November 11, 2022

Temp ( °F °C ) Dew Point ( °F °C ) Humidity (%) Winds ( mph kmh ) Pressure ( in mb ) Visibility ( mi km ) Precip ( " mm )
12:53 am 00:53 Clear 50 10 35 1.7 56 56 N 9 15 29.77 1008 10 16 0.00 0.00
1:53 am 01:53 Mostly Clear 49 9.4 34 1.1 56 56 NNW 8 13 29.78 1008 10 16 0.00 0.00
2:53 am 02:53 Clear 51 10.6 33 0.6 50 50 N 8 13 29.78 1008 10 16 0.00 0.00
3:53 am 03:53 Mostly Clear 51 10.6 33 0.6 50 50 N 10 17 29.79 1009 10 16 0.00 0.00
4:53 am 04:53 Mostly Cloudy 50 10 36 2.2 58 58 NNE 9 15 29.81 1010 10 16 0.00 0.00
5:53 am 05:53 Clear 48 8.9 34 1.1 58 58 N 9 15 29.85 1011 10 16 0.00 0.00
6:53 am 06:53 Clear 45 7.2 32 0 60 60 N 10 17 29.89 1012 10 16 0.00 0.00
7:53 am 07:53 Sunny 45 7.2 30 -1.1 55 55 N 15 24 29.94 1014 10 16 0.00 0.00
8:53 am 08:53 Sunny 48 8.9 31 -0.6 51 51 NNE 17 28 29.98 1015 10 16 0.00 0.00
9:53 am 09:53 Sunny 50 10 31 -0.6 48 48 N 22 35 30.02 1017 10 16 0.00 0.00
10:53 am 10:53 Sunny 51 10.6 30 -1.1 44 44 NE 18 30 30.04 1017 10 16 0.00 0.00
11:53 am 11:53 Sunny 53 11.7 30 -1.1 41 41 NNE 15 24 30.06 1018 10 16 0.00 0.00
12:53 pm 12:53 Sunny 53 11.7 29 -1.7 39 39 N 15 24 30.05 1018 10 16 0.00 0.00
1:53 pm 13:53 Sunny 54 12.2 27 -2.8 35 35 NNE 14 22 30.03 1017 10 16 0.00 0.00
2:53 pm 14:53 Sunny 55 12.8 26 -3.3 32 32 N 12 19 30.01 1016 10 16 0.00 0.00
3:53 pm 15:53 Sunny 55 12.8 25 -3.9 31 31 N 14 22 30.02 1017 10 16 0.00 0.00
4:53 pm 16:53 Sunny 55 12.8 24 -4.4 30 30 NNE 13 20 30.03 1017 10 16 0.00 0.00
5:53 pm 17:53 Sunny 51 10.6 23 -5 33 33 NNE 14 22 30.06 1018 10 16 0.00 0.00
6:53 pm 18:53 Clear 48 8.9 22 -5.6 35 35 NNE 10 17 30.11 1020 10 16 0.00 0.00
7:53 pm 19:53 Clear 45 7.2 21 -6.1 38 38 NE 10 17 30.15 1021 10 16 0.00 0.00
8:53 pm 20:53 Clear 43 6.1 20 -6.7 39 39 NE 8 13 30.16 1022 10 16 0.00 0.00
9:53 pm 21:53 Clear 40 4.4 19 -7.2 43 43 ENE 3 6 30.19 1022 10 16 0.00 0.00
10:53 pm 22:53 Clear 38 3.3 19 -7.2 46 46 NNE 5 7 30.21 1023 10 16 0.00 0.00
11:53 pm 23:53 Clear 35 1.7 19 -7.2 52 52 ENE 5 7 30.23 1024 10 16 0.00 0.00

Powered by AerisWeather